[TLELIST] Archives

 

Current TLEs

May 13th 2008 PST

HST 1 20580U 90037B 08133.22396530 .00000355 00000-0 14608-4 0 1346 2 20580 028.4691 197.7826 0003631 000.3531 359.7058 15.00377223789575 ISS (ZARYA) 1 25544U 98067A 08134.11661854 .00009851 00000-0 65334-4 0 4643 2 25544 051.6405 197.1584 0006193 200.1000 244.1211 15.76250765542998 CXO 1 25867U 99040B 08127.91666667 .00000423 00000-0 10000-3 0 1945 2 25867 063.5912 081.5293 6757655 279.4669 359.3736 00.37798619 3478 ____________________________________________________________________ These 2-Line ...Continue Reading

Current TLEs

May 12th 2008 PST

HST 1 20580U 90037B 08133.22396530 .00000355 00000-0 14608-4 0 1346 2 20580 028.4691 197.7826 0003631 000.3531 359.7058 15.00377223789575 ISS (ZARYA) 1 25544U 98067A 08132.73261936 .00010955 00000-0 72258-4 0 4567 2 25544 051.6412 204.2888 0006414 193.9433 311.5467 15.76225570542772 CXO 1 25867U 99040B 08127.91666667 .00000423 00000-0 10000-3 0 1945 2 25867 063.5912 081.5293 6757655 279.4669 359.3736 00.37798619 3478 ____________________________________________________________________ These 2-Line ...Continue Reading

Current TLEs

May 11th 2008 PST

HST 1 20580U 90037B 08131.62750338 .00000361 00000-0 15074-4 0 1332 2 20580 028.4693 208.1932 0003609 341.7658 018.2802 15.00376671789333 ISS (ZARYA) 1 25544U 98067A 08131.52526256 .00013077 00000-0 85516-4 0 4493 2 25544 051.6398 210.5080 0006288 187.4518 302.4475 15.76205275542587 CXO 1 25867U 99040B 08127.91666667 .00000423 00000-0 10000-3 0 1945 2 25867 063.5912 081.5293 6757655 279.4669 359.3736 00.37798619 3478 ____________________________________________________________________ These 2-Line ...Continue Reading

Current TLEs

May 10th 2008 PST

HST 1 20580U 90037B 08130.56319537 .00000346 00000-0 13966-4 0 1326 2 20580 028.4695 215.1337 0003615 329.3236 030.7140 15.00376162789174 ISS (ZARYA) 1 25544U 98067A 08130.50420330 .00014761 00000-0 96063-4 0 4441 2 25544 051.6405 215.7665 0006659 183.8261 268.3941 15.76184096542427 CXO 1 25867U 99040B 08127.91666667 .00000423 00000-0 10000-3 0 1945 2 25867 063.5912 081.5293 6757655 279.4669 359.3736 00.37798619 3478 ____________________________________________________________________ These 2-Line ...Continue Reading

Current TLEs

May 9th 2008 PST

HST 1 20580U 90037B 08128.63413735 .00000363 00000-0 15254-4 0 1305 2 20580 028.4697 227.7160 0003654 308.7901 051.2360 15.00375568788880 ISS (ZARYA) 1 25544U 98067A 08130.11977802 .00015853 00000-0 10288-3 0 4424 2 25544 051.6415 217.7476 0006531 184.9993 244.4439 15.76177762542365 CXO 1 25867U 99040B 08127.91666667 .00000423 00000-0 10000-3 0 1945 2 25867 063.5912 081.5293 6757655 279.4669 359.3736 00.37798619 3478 ____________________________________________________________________ These 2-Line ...Continue Reading

Current TLEs

May 8th 2008 PST

HST 1 20580U 90037B 08128.63413735 .00000363 00000-0 15254-4 0 1305 2 20580 028.4697 227.7160 0003654 308.7901 051.2360 15.00375568788880 ISS (ZARYA) 1 25544U 98067A 08128.54347067 .00017179 00000-0 11135-3 0 4337 2 25544 051.6413 225.8681 0006638 178.6243 300.5860 15.76130244542116 CXO 1 25867U 99040B 08127.91666667 .00000423 00000-0 10000-3 0 1945 2 25867 063.5912 081.5293 6757655 279.4669 359.3736 00.37798619 3478 ____________________________________________________________________ These 2-Line ...Continue Reading

Current TLEs

May 7th 2008 PST

HST 1 20580U 90037B 08127.50330980 .00000363 00000-0 15273-4 0 1299 2 20580 028.4697 235.0895 0003648 296.6025 063.4189 15.00375124788716 ISS (ZARYA) 1 25544U 98067A 08128.15662330 .00017398 00000-0 11278-3 0 4305 2 25544 051.6416 227.8607 0006626 177.7569 264.9852 15.76117536542053 CXO 1 25867U 99040B 08127.91666667 .00000423 00000-0 10000-3 0 1945 2 25867 063.5912 081.5293 6757655 279.4669 359.3736 00.37798619 3478 ____________________________________________________________________ These 2-Line ...Continue Reading

Current TLEs

May 6th 2008 PST

HST 1 20580U 90037B 08125.77380862 +.00000378 +00000-0 +16431-4 0 01417 2 20580 028.4700 246.3671 0003668 277.3862 082.6308 15.00374560788455 ISS (ZARYA) 1 25544U 98067A 08127.33544981 .00017631 00000-0 11436-3 0 4266 2 25544 051.6414 232.0907 0006898 173.9478 286.3400 15.76089149541920 CXO 1 25867U 99040B 08127.91666667 .00000423 00000-0 10000-3 0 1945 2 25867 063.5912 081.5293 6757655 279.4669 359.3736 00.37798619 3478 ____________________________________________________________________ These 2-Line ...Continue Reading

Current TLEs

May 5th 2008 PST

HST 1 20580U 90037B 08125.57425091 .00000370 00000-0 15838-4 0 1286 2 20580 028.4700 247.6689 0003715 275.2551 084.7612 15.00374393788425 ISS (ZARYA) 1 25544U 98067A 08126.37447654 .00017426 00000-0 11325-3 0 4223 2 25544 051.6416 237.0398 0007022 171.0619 233.1158 15.76053263541778 CXO 1 25867U 99040B 08122.58333333 .00000600 00000-0 10000-3 0 1930 2 25867 063.5494 081.7262 6753394 279.4770 353.4015 00.37809488 3450 ____________________________________________________________________ These 2-Line ...Continue Reading

Current TLEs

May 4th 2008 PST

HST 1 20580U 90037B 08123.77823359 .00000435 00000-0 20880-4 0 1279 2 20580 028.4700 259.4017 0003781 257.3492 102.6677 15.00374179788152 ISS (ZARYA) 1 25544U 98067A 08125.48613199 .00017282 00000-0 11252-3 0 4187 2 25544 051.6414 241.6159 0006970 167.6749 232.8692 15.76021000541636 CXO 1 25867U 99040B 08122.58333333 .00000600 00000-0 10000-3 0 1930 2 25867 063.5494 081.7262 6753394 279.4770 353.4015 00.37809488 3450 ____________________________________________________________________ These 2-Line ...Continue Reading
  • This mailing list is a public mailing list - anyone may join or leave, at any time.
  • This mailing list is announce-only.

International Space Station (ISS) / Hubble Space Telescope (HST) / Chandra X-Ray Observatory Orbital Data via EMAIL

Privacy Policy:

Private list